Time,TemperatureF,DewpointF,PressureIn,WindDirection,WindDirectionDegrees,WindSpeedMPH,WindSpeedGustMPH,Humidity,HourlyPrecipIn,Conditions,Clouds,dailyrainin,SoftwareType,DateUTC
2013-05-09 00:03:00,53.2,40.1,30.14,NNW,337,0.0,0.0,61,0.00,,,0.06,WUHU21623XXSP,2013-05-09 07:03:00,
2013-05-09 00:08:00,52.9,39.8,30.15,NNW,337,0.0,0.0,61,0.00,,,0.00,WUHU21623XXSP,2013-05-09 07:08:00,
2013-05-09 00:14:00,52.7,39.6,30.15,WNW,292,0.0,0.0,61,0.00,,,0.00,WUHU21623XXSP,2013-05-09 07:14:00,
2013-05-09 00:19:00,52.5,39.6,30.15,WNW,292,0.0,0.0,61,0.00,,,0.00,WUHU21623XXSP,2013-05-09 07:19:00,
2013-05-09 00:44:00,51.6,38.5,30.16,NNW,337,0.0,0.0,61,0.00,,,0.00,WUHU21623XXSP,2013-05-09 07:44:00,
2013-05-09 00:49:00,51.6,38.9,30.16,WNW,292,0.0,0.0,62,0.00,,,0.00,WUHU21623XXSP,2013-05-09 07:49:00,
2013-05-09 00:54:00,51.4,38.8,30.16,WNW,292,0.0,0.0,62,0.00,,,0.00,WUHU21623XXSP,2013-05-09 07:54:00,
2013-05-09 01:00:00,51.4,38.8,30.16,WNW,292,0.0,0.0,62,0.00,,,0.00,WUHU21623XXSP,2013-05-09 08:00:00,
2013-05-09 01:05:00,51.3,38.6,30.16,WNW,292,0.0,0.0,62,0.00,,,0.00,WUHU21623XXSP,2013-05-09 08:05:00,
2013-05-09 01:10:00,51.3,39.0,30.16,SSE,157,0.0,0.0,63,0.00,,,0.00,WUHU21623XXSP,2013-05-09 08:10:00,
2013-05-09 01:16:00,51.1,38.9,30.15,South,180,0.0,0.0,63,0.00,,,0.00,WUHU21623XXSP,2013-05-09 08:16:00,
2013-05-09 01:22:00,50.7,38.7,30.15,SSE,157,1.3,1.3,63,0.00,,,0.00,WUHU21623XXSP,2013-05-09 08:22:00,
2013-05-09 01:31:00,50.5,38.8,30.15,SE,135,0.0,1.3,64,0.00,,,0.00,WUHU21623XXSP,2013-05-09 08:31:00,
2013-05-09 01:40:00,50.2,38.4,30.16,SSE,157,0.0,0.0,64,0.00,,,0.00,WUHU21623XXSP,2013-05-09 08:40:00,
2013-05-09 01:57:00,49.6,37.9,30.15,NW,315,0.0,0.0,64,0.00,,,0.00,WUHU21623XXSP,2013-05-09 08:57:00,
2013-05-09 02:02:00,49.6,37.9,30.15,NW,315,0.0,0.0,64,0.00,,,0.00,WUHU21623XXSP,2013-05-09 09:02:00,
2013-05-09 02:12:00,49.1,37.8,30.15,SSW,202,0.0,0.0,65,0.00,,,0.00,WUHU21623XXSP,2013-05-09 09:12:00,
2013-05-09 02:17:00,48.7,37.5,30.16,SSE,157,0.0,0.0,65,0.00,,,0.00,WUHU21623XXSP,2013-05-09 09:17:00,
2013-05-09 02:22:00,48.6,37.3,30.16,SSE,157,0.0,0.0,65,0.00,,,0.00,WUHU21623XXSP,2013-05-09 09:22:00,
2013-05-09 02:27:00,48.2,37.0,30.16,SSE,157,0.0,0.0,65,0.00,,,0.00,WUHU21623XXSP,2013-05-09 09:27:00,
2013-05-09 02:52:00,47.1,36.3,30.16,ESE,112,0.0,0.0,66,0.00,,,0.00,WUHU21623XXSP,2013-05-09 09:52:00,
2013-05-09 02:57:00,47.1,36.3,30.16,ESE,112,0.0,0.0,66,0.00,,,0.00,WUHU21623XXSP,2013-05-09 09:57:00,
2013-05-09 03:02:00,46.9,36.1,30.16,SSE,157,0.0,0.0,66,0.00,,,0.00,WUHU21623XXSP,2013-05-09 10:02:00,
2013-05-09 03:27:00,46.2,35.9,30.15,SSE,157,0.0,0.0,67,0.00,,,0.00,WUHU21623XXSP,2013-05-09 10:27:00,
2013-05-09 03:37:00,45.7,35.7,30.15,SSW,202,0.0,0.0,68,0.00,,,0.00,WUHU21623XXSP,2013-05-09 10:37:00,
2013-05-09 03:42:00,45.7,35.7,30.15,East,90,0.0,0.0,68,0.00,,,0.00,WUHU21623XXSP,2013-05-09 10:42:00,
2013-05-09 03:48:00,45.7,35.7,30.15,NE,45,0.0,0.0,68,0.00,,,0.00,WUHU21623XXSP,2013-05-09 10:48:00,
2013-05-09 03:57:00,45.5,35.5,30.16,NE,45,0.0,0.0,68,0.00,,,0.00,WUHU21623XXSP,2013-05-09 10:57:00,
2013-05-09 04:02:00,45.5,35.5,30.16,NE,45,0.0,0.0,68,0.00,,,0.00,WUHU21623XXSP,2013-05-09 11:02:00,
2013-05-09 04:09:00,45.1,35.2,30.15,ENE,67,0.0,0.0,68,0.00,,,0.00,WUHU21623XXSP,2013-05-09 11:09:00,
2013-05-09 04:37:00,44.4,34.9,30.16,SE,135,0.0,0.0,69,0.00,,,0.00,WUHU21623XXSP,2013-05-09 11:37:00,
2013-05-09 04:44:00,44.1,34.9,30.15,South,180,0.0,0.0,70,0.00,,,0.00,WUHU21623XXSP,2013-05-09 11:44:00,
2013-05-09 04:53:00,43.9,34.8,30.15,SSW,202,0.0,0.0,70,0.00,,,0.00,WUHU21623XXSP,2013-05-09 11:53:00,
2013-05-09 04:58:00,43.9,34.8,30.16,NE,45,0.0,0.0,70,0.00,,,0.00,WUHU21623XXSP,2013-05-09 11:58:00,
2013-05-09 05:03:00,43.9,34.8,30.16,NE,45,0.0,0.0,70,0.00,,,0.00,WUHU21623XXSP,2013-05-09 12:03:00,
2013-05-09 05:08:00,43.7,34.6,30.15,NE,45,0.0,0.0,70,0.00,,,0.00,WUHU21623XXSP,2013-05-09 12:08:00,
2013-05-09 05:14:00,43.5,34.8,30.15,NE,45,0.0,0.0,71,0.00,,,0.00,WUHU21623XXSP,2013-05-09 12:14:00,
2013-05-09 05:22:00,43.3,34.6,30.16,NE,45,0.0,0.0,71,0.00,,,0.00,WUHU21623XXSP,2013-05-09 12:22:00,
2013-05-09 05:31:00,43.0,34.3,30.16,SSE,157,0.0,0.0,71,0.00,,,0.00,WUHU21623XXSP,2013-05-09 12:31:00,
2013-05-09 05:42:00,42.6,33.9,30.16,ENE,67,0.0,0.0,71,0.00,,,0.00,WUHU21623XXSP,2013-05-09 12:42:00,
2013-05-09 05:57:00,42.4,33.8,30.16,East,90,0.0,0.0,71,0.00,,,0.00,WUHU21623XXSP,2013-05-09 12:57:00,
2013-05-09 06:02:00,42.4,33.8,30.16,East,90,0.0,0.0,71,0.00,,,0.00,WUHU21623XXSP,2013-05-09 13:02:00,
2013-05-09 06:07:00,42.1,33.4,30.17,East,90,0.0,0.0,71,0.00,,,0.00,WUHU21623XXSP,2013-05-09 13:07:00,
2013-05-09 06:14:00,42.1,33.7,30.17,NE,45,0.0,0.0,72,0.00,,,0.00,WUHU21623XXSP,2013-05-09 13:14:00,
2013-05-09 06:20:00,41.9,33.5,30.17,ESE,112,0.0,0.0,72,0.00,,,0.00,WUHU21623XXSP,2013-05-09 13:20:00,
2013-05-09 06:27:00,41.9,33.5,30.17,NE,45,0.0,0.0,72,0.00,,,0.00,WUHU21623XXSP,2013-05-09 13:27:00,
2013-05-09 06:44:00,42.1,34.1,30.17,SSE,157,0.0,0.0,73,0.00,,,0.00,WUHU21623XXSP,2013-05-09 13:44:00,
2013-05-09 06:50:00,42.1,34.4,30.17,SSW,202,0.0,0.0,74,0.00,,,0.00,WUHU21623XXSP,2013-05-09 13:50:00,
2013-05-09 06:57:00,42.6,34.9,30.18,SSE,157,0.0,0.0,74,0.00,,,0.00,WUHU21623XXSP,2013-05-09 13:57:00,
2013-05-09 07:02:00,42.6,34.9,30.18,SSE,157,0.0,0.0,74,0.00,,,0.00,WUHU21623XXSP,2013-05-09 14:02:00,
2013-05-09 07:07:00,43.2,35.4,30.19,SSW,202,0.0,0.0,74,0.00,,,0.00,WUHU21623XXSP,2013-05-09 14:07:00,
2013-05-09 07:12:00,43.7,35.8,30.18,North,0,0.0,0.0,75,0.00,,,0.00,WUHU21623XXSP,2013-05-09 14:12:00,
2013-05-09 07:20:00,45.1,38.2,30.18,NNW,337,0.0,0.0,77,0.00,,,0.00,WUHU21623XXSP,2013-05-09 14:20:00,
2013-05-09 07:25:00,45.5,39.1,30.19,NW,315,0.0,0.0,78,0.00,,,0.00,WUHU21623XXSP,2013-05-09 14:25:00,
2013-05-09 07:33:00,46.6,40.1,30.19,North,0,0.0,0.0,78,0.00,,,0.00,WUHU21623XXSP,2013-05-09 14:33:00,
2013-05-09 07:46:00,48.0,41.4,30.19,WNW,292,0.0,0.0,78,0.00,,,0.00,WUHU21623XXSP,2013-05-09 14:46:00,
2013-05-09 08:09:00,49.8,42.9,30.19,SW,225,0.0,0.0,77,0.00,,,0.00,WUHU21623XXSP,2013-05-09 15:09:00,
2013-05-09 08:16:00,50.4,43.1,30.19,SE,135,0.0,0.0,76,0.00,,,0.00,WUHU21623XXSP,2013-05-09 15:16:00,
2013-05-09 08:21:00,50.5,43.2,30.19,East,90,0.0,0.0,76,0.00,,,0.00,WUHU21623XXSP,2013-05-09 15:21:00,
2013-05-09 08:33:00,50.9,43.3,30.19,SSW,202,0.0,0.0,75,0.00,,,0.00,WUHU21623XXSP,2013-05-09 15:33:00,
2013-05-09 08:38:00,51.3,43.6,30.19,SE,135,0.0,0.0,75,0.00,,,0.00,WUHU21623XXSP,2013-05-09 15:38:00,
2013-05-09 09:14:00,53.4,45.0,30.19,South,180,0.0,0.0,73,0.00,,,0.00,WUHU21623XXSP,2013-05-09 16:14:00,
2013-05-09 09:19:00,54.0,45.5,30.19,NNW,337,0.0,0.0,73,0.00,,,0.00,WUHU21623XXSP,2013-05-09 16:19:00,
2013-05-09 09:26:00,54.5,45.7,30.19,East,90,0.0,0.0,71,0.00,,,0.00,WUHU21623XXSP,2013-05-09 16:26:00,
2013-05-09 09:37:00,55.8,46.2,30.19,NNW,337,0.0,0.0,70,0.00,,,0.00,WUHU21623XXSP,2013-05-09 16:37:00,
2013-05-09 09:42:00,56.1,46.5,30.19,NE,45,0.0,0.0,70,0.00,,,0.00,WUHU21623XXSP,2013-05-09 16:42:00,
2013-05-09 09:47:00,56.5,46.4,30.18,West,270,0.0,0.0,69,0.00,,,0.00,WUHU21623XXSP,2013-05-09 16:47:00,
2013-05-09 10:01:00,57.9,47.4,30.18,NNE,22,0.0,0.0,68,0.00,,,0.00,WUHU21623XXSP,2013-05-09 17:01:00,
2013-05-09 10:12:00,58.8,47.0,30.19,WNW,292,0.0,0.0,65,0.00,,,0.00,WUHU21623XXSP,2013-05-09 17:12:00,
2013-05-09 10:17:00,59.0,47.2,30.18,South,180,0.9,0.9,65,0.00,,,0.00,WUHU21623XXSP,2013-05-09 17:17:00,
2013-05-09 10:37:00,60.6,47.2,30.18,West,270,0.0,0.0,61,0.00,,,0.00,WUHU21623XXSP,2013-05-09 17:37:00,
2013-05-09 10:44:00,61.3,47.3,30.18,NW,315,0.0,0.0,60,0.00,,,0.00,WUHU21623XXSP,2013-05-09 17:44:00,
2013-05-09 10:52:00,61.9,46.5,30.18,South,180,0.0,0.0,57,0.00,,,0.00,WUHU21623XXSP,2013-05-09 17:52:00,
2013-05-09 10:57:00,62.2,47.3,30.18,WNW,292,0.0,0.0,58,0.00,,,0.00,WUHU21623XXSP,2013-05-09 17:57:00,
2013-05-09 11:11:00,62.8,47.3,30.18,SW,225,3.1,3.1,57,0.00,,,0.00,WUHU21623XXSP,2013-05-09 18:11:00,
2013-05-09 11:18:00,63.3,47.8,30.18,WSW,247,2.7,3.1,57,0.00,,,0.00,WUHU21623XXSP,2013-05-09 18:18:00,
2013-05-09 11:23:00,63.3,47.3,30.18,WNW,292,0.0,2.7,56,0.00,,,0.00,WUHU21623XXSP,2013-05-09 18:23:00,
2013-05-09 11:29:00,64.0,47.9,30.18,North,0,0.0,0.0,56,0.00,,,0.00,WUHU21623XXSP,2013-05-09 18:29:00,
2013-05-09 11:39:00,64.6,47.4,30.18,SSW,202,0.0,0.0,54,0.00,,,0.00,WUHU21623XXSP,2013-05-09 18:39:00,
2013-05-09 11:48:00,65.1,48.0,30.18,NW,315,0.0,0.0,54,0.00,,,0.00,WUHU21623XXSP,2013-05-09 18:48:00,
2013-05-09 11:53:00,65.5,48.8,30.18,SW,225,0.0,0.0,55,0.00,,,0.00,WUHU21623XXSP,2013-05-09 18:53:00,
2013-05-09 11:58:00,65.7,48.5,30.18,NNE,22,0.0,0.0,53,0.00,,,0.00,WUHU21623XXSP,2013-05-09 18:58:00,
2013-05-09 12:16:00,66.4,47.3,30.17,NNE,22,0.9,0.9,50,0.00,,,0.00,WUHU21623XXSP,2013-05-09 19:16:00,
2013-05-09 12:28:00,66.4,46.1,30.17,NW,315,4.7,4.7,48,0.00,,,0.00,WUHU21623XXSP,2013-05-09 19:28:00,
2013-05-09 12:43:00,66.7,45.8,30.17,WNW,292,1.6,1.6,47,0.00,,,0.00,WUHU21623XXSP,2013-05-09 19:43:00,
2013-05-09 12:52:00,67.3,45.7,30.17,NNW,337,0.0,1.6,46,0.00,,,0.00,WUHU21623XXSP,2013-05-09 19:52:00,
2013-05-09 13:01:00,67.6,46.0,30.17,NE,45,0.0,0.0,46,0.00,,,0.00,WUHU21623XXSP,2013-05-09 20:01:00,
2013-05-09 13:16:00,68.2,45.9,30.16,NE,45,0.0,0.0,45,0.00,,,0.00,WUHU21623XXSP,2013-05-09 20:16:00,
2013-05-09 13:35:00,68.5,45.7,30.15,SSE,157,0.0,0.0,44,0.00,,,0.00,WUHU21623XXSP,2013-05-09 20:35:00,
2013-05-09 13:43:00,68.7,45.2,30.16,ESE,112,0.0,0.0,43,0.00,,,0.00,WUHU21623XXSP,2013-05-09 20:43:00,
2013-05-09 13:48:00,69.1,45.0,30.16,NW,315,3.8,3.8,42,0.00,,,0.00,WUHU21623XXSP,2013-05-09 20:48:00,
2013-05-09 14:07:00,70.5,44.3,30.15,WNW,292,6.3,6.3,39,0.00,,,0.00,WUHU21623XXSP,2013-05-09 21:07:00,
2013-05-09 14:12:00,70.3,42.7,30.15,WNW,292,3.8,6.3,37,0.00,,,0.00,WUHU21623XXSP,2013-05-09 21:12:00,
2013-05-09 14:17:00,70.5,42.9,30.15,WNW,292,1.1,3.8,37,0.00,,,0.00,WUHU21623XXSP,2013-05-09 21:17:00,
2013-05-09 14:28:00,71.4,42.2,30.15,NW,315,4.7,4.7,35,0.00,,,0.00,WUHU21623XXSP,2013-05-09 21:28:00,
2013-05-09 14:39:00,71.2,42.0,30.14,NW,315,8.3,8.3,35,0.00,,,0.00,WUHU21623XXSP,2013-05-09 21:39:00,
2013-05-09 14:45:00,70.5,42.4,30.15,NNW,337,7.2,8.3,36,0.00,,,0.00,WUHU21623XXSP,2013-05-09 21:45:00,
2013-05-09 14:58:00,70.0,43.1,30.15,WNW,292,4.5,4.5,38,0.00,,,0.00,WUHU21623XXSP,2013-05-09 21:58:00,
2013-05-09 15:03:00,70.0,43.1,30.15,WNW,292,4.5,4.5,39,0.00,,,0.00,WUHU21623XXSP,2013-05-09 22:03:00,
2013-05-09 15:08:00,69.8,43.7,30.15,NNW,337,5.6,5.6,37,0.00,,,0.00,WUHU21623XXSP,2013-05-09 22:08:00,
2013-05-09 15:13:00,69.6,42.0,30.15,NW,315,3.1,5.6,37,0.00,,,0.00,WUHU21623XXSP,2013-05-09 22:13:00,
2013-05-09 15:18:00,69.6,42.0,30.14,NW,315,5.8,5.8,37,0.00,,,0.00,WUHU21623XXSP,2013-05-09 22:18:00,
2013-05-09 15:24:00,69.6,42.0,30.14,NW,315,6.0,6.0,36,0.00,,,0.00,WUHU21623XXSP,2013-05-09 22:24:00,
2013-05-09 15:29:00,70.0,41.6,30.14,NNW,337,6.9,6.9,36,0.00,,,0.00,WUHU21623XXSP,2013-05-09 22:29:00,
2013-05-09 15:34:00,70.0,41.6,30.14,West,270,4.5,6.9,36,0.00,,,0.00,WUHU21623XXSP,2013-05-09 22:34:00,
2013-05-09 15:41:00,70.2,41.1,30.14,West,270,5.1,5.1,35,0.00,,,0.00,WUHU21623XXSP,2013-05-09 22:41:00,
2013-05-09 15:48:00,70.2,41.1,30.14,NW,315,1.6,5.1,35,0.00,,,0.00,WUHU21623XXSP,2013-05-09 22:48:00,
2013-05-09 15:53:00,70.2,41.1,30.14,NW,315,1.6,1.6,35,0.00,,,0.00,WUHU21623XXSP,2013-05-09 22:53:00,
2013-05-09 15:58:00,70.3,42.0,30.13,West,270,5.1,5.1,36,0.00,,,0.00,WUHU21623XXSP,2013-05-09 22:58:00,
2013-05-09 16:07:00,70.9,41.7,30.13,NW,315,3.8,5.1,35,0.00,,,0.00,WUHU21623XXSP,2013-05-09 23:07:00,
2013-05-09 16:13:00,71.2,42.0,30.13,WNW,292,2.0,3.8,35,0.00,,,0.00,WUHU21623XXSP,2013-05-09 23:13:00,
2013-05-09 16:18:00,71.2,42.0,30.13,WNW,292,0.0,2.0,35,0.00,,,0.00,WUHU21623XXSP,2013-05-09 23:18:00,
2013-05-09 16:23:00,71.4,42.2,30.13,WNW,292,8.1,8.1,35,0.00,,,0.00,WUHU21623XXSP,2013-05-09 23:23:00,
2013-05-09 16:32:00,71.4,40.7,30.13,NW,315,9.2,9.2,33,0.00,,,0.00,WUHU21623XXSP,2013-05-09 23:32:00,
2013-05-09 16:37:00,71.4,40.7,30.13,NNW,337,4.5,9.2,33,0.00,,,0.00,WUHU21623XXSP,2013-05-09 23:37:00,
2013-05-09 16:43:00,71.4,40.7,30.13,NW,315,4.7,4.7,33,0.00,,,0.00,WUHU21623XXSP,2013-05-09 23:43:00,
2013-05-09 16:48:00,71.4,41.5,30.12,WNW,292,5.8,5.8,34,0.00,,,0.00,WUHU21623XXSP,2013-05-09 23:48:00,
2013-05-09 16:53:00,71.4,41.5,30.13,NNW,337,2.9,5.8,34,0.00,,,0.00,WUHU21623XXSP,2013-05-09 23:53:00,
2013-05-09 16:58:00,71.8,41.0,30.12,NNE,22,4.7,4.7,33,0.00,,,0.00,WUHU21623XXSP,2013-05-09 23:58:00,
2013-05-09 17:03:00,71.8,41.0,30.13,WNW,292,5.1,5.1,33,0.00,,,0.00,WUHU21623XXSP,2013-05-10 00:03:00,
2013-05-09 17:09:00,71.8,41.0,30.13,WNW,292,2.9,5.1,33,0.00,,,0.00,WUHU21623XXSP,2013-05-10 00:09:00,
2013-05-09 17:15:00,72.0,40.4,30.13,NNE,22,0.0,2.9,32,0.00,,,0.00,WUHU21623XXSP,2013-05-10 00:15:00,
2013-05-09 17:20:00,72.0,40.4,30.13,WNW,292,0.9,0.9,32,0.00,,,0.00,WUHU21623XXSP,2013-05-10 00:20:00,
2013-05-09 17:25:00,72.0,40.4,30.13,WNW,292,6.0,6.0,32,0.00,,,0.00,WUHU21623XXSP,2013-05-10 00:25:00,
2013-05-09 17:30:00,72.0,39.7,30.13,NNW,337,2.2,6.0,31,0.00,,,0.00,WUHU21623XXSP,2013-05-10 00:30:00,
2013-05-09 17:35:00,71.8,39.5,30.13,North,0,0.7,2.2,31,0.00,,,0.00,WUHU21623XXSP,2013-05-10 00:35:00,
2013-05-09 17:40:00,71.8,38.8,30.13,North,0,3.1,3.1,30,0.00,,,0.00,WUHU21623XXSP,2013-05-10 00:40:00,
2013-05-09 17:45:00,71.8,38.8,30.13,NW,315,4.7,4.7,30,0.00,,,0.00,WUHU21623XXSP,2013-05-10 00:45:00,
2013-05-09 17:50:00,71.6,39.4,30.12,NW,315,3.6,4.7,31,0.00,,,0.00,WUHU21623XXSP,2013-05-10 00:50:00,
2013-05-09 17:55:00,71.4,38.5,30.13,North,0,4.3,4.3,30,0.00,,,0.00,WUHU21623XXSP,2013-05-10 00:55:00,
2013-05-09 18:00:00,71.4,38.5,30.12,WNW,292,0.7,4.3,31,0.00,,,0.00,WUHU21623XXSP,2013-05-10 01:00:00,
2013-05-09 18:05:00,71.4,39.2,30.12,WNW,292,6.3,6.3,31,0.00,,,0.00,WUHU21623XXSP,2013-05-10 01:05:00,
2013-05-09 18:11:00,71.4,38.5,30.13,West,270,3.4,6.3,30,0.00,,,0.00,WUHU21623XXSP,2013-05-10 01:11:00,
2013-05-09 18:16:00,71.2,38.3,30.13,NNW,337,4.3,4.3,30,0.00,,,0.00,WUHU21623XXSP,2013-05-10 01:16:00,
2013-05-09 18:22:00,71.2,38.3,30.13,NW,315,2.2,8.3,30,0.00,,,0.00,WUHU21623XXSP,2013-05-10 01:22:00,
2013-05-09 18:30:00,71.2,38.3,30.12,NNW,337,3.8,3.8,30,0.00,,,0.00,WUHU21623XXSP,2013-05-10 01:30:00,
2013-05-09 18:37:00,71.1,38.2,30.13,WNW,292,4.9,4.9,30,0.00,,,0.00,WUHU21623XXSP,2013-05-10 01:37:00,
2013-05-09 18:43:00,70.9,38.0,30.13,NNW,337,5.6,5.6,30,0.00,,,0.00,WUHU21623XXSP,2013-05-10 01:43:00,
2013-05-09 18:49:00,70.7,38.6,30.13,NW,315,6.5,6.5,31,0.00,,,0.00,WUHU21623XXSP,2013-05-10 01:49:00,
2013-05-09 18:54:00,70.7,38.6,30.13,WNW,292,3.8,6.5,31,0.00,,,0.00,WUHU21623XXSP,2013-05-10 01:54:00,
2013-05-09 18:59:00,70.5,38.4,30.13,WNW,292,5.6,5.6,31,0.00,,,0.00,WUHU21623XXSP,2013-05-10 01:59:00,
2013-05-09 19:04:00,70.3,38.3,30.13,NW,315,5.6,5.6,31,0.00,,,0.00,WUHU21623XXSP,2013-05-10 02:04:00,
2013-05-09 19:10:00,70.3,38.3,30.14,WNW,292,2.2,5.6,31,0.00,,,0.00,WUHU21623XXSP,2013-05-10 02:10:00,
2013-05-09 19:15:00,70.0,37.9,30.14,North,0,6.7,6.7,31,0.00,,,0.00,WUHU21623XXSP,2013-05-10 02:15:00,
2013-05-09 19:20:00,69.8,37.8,30.13,NNW,337,0.0,6.7,32,0.00,,,0.00,WUHU21623XXSP,2013-05-10 02:20:00,
2013-05-09 19:25:00,69.6,38.4,30.13,WNW,292,3.6,3.8,32,0.00,,,0.00,WUHU21623XXSP,2013-05-10 02:25:00,
2013-05-09 19:30:00,69.3,38.0,30.13,WNW,292,2.5,3.8,32,0.00,,,0.00,WUHU21623XXSP,2013-05-10 02:30:00,
2013-05-09 19:35:00,68.9,38.4,30.14,WNW,292,0.0,2.5,33,0.00,,,0.00,WUHU21623XXSP,2013-05-10 02:35:00,
2013-05-09 19:40:00,68.4,38.1,30.14,NW,315,1.6,1.6,33,0.00,,,0.00,WUHU21623XXSP,2013-05-10 02:40:00,
2013-05-09 19:45:00,68.4,38.7,30.14,WNW,292,0.0,1.6,34,0.00,,,0.00,WUHU21623XXSP,2013-05-10 02:45:00,
2013-05-09 19:50:00,67.6,38.2,30.15,NW,315,0.0,1.6,34,0.00,,,0.00,WUHU21623XXSP,2013-05-10 02:50:00,
2013-05-09 20:03:00,66.7,38.8,30.15,WNW,292,4.5,4.5,36,0.00,,,0.00,WUHU21623XXSP,2013-05-10 03:03:00,
2013-05-09 20:09:00,66.0,38.9,30.16,North,0,0.0,4.5,37,0.00,,,0.00,WUHU21623XXSP,2013-05-10 03:09:00,
2013-05-09 20:14:00,66.0,38.9,30.15,North,0,1.8,1.8,37,0.00,,,0.00,WUHU21623XXSP,2013-05-10 03:14:00,
2013-05-09 20:19:00,65.7,39.3,30.15,North,0,0.0,1.8,38,0.00,,,0.00,WUHU21623XXSP,2013-05-10 03:19:00,
2013-05-09 20:24:00,65.3,39.6,30.15,NNE,22,0.0,0.0,39,0.00,,,0.00,WUHU21623XXSP,2013-05-10 03:24:00,
2013-05-09 20:29:00,65.3,39.6,30.16,NNE,22,0.0,0.0,39,0.00,,,0.00,WUHU21623XXSP,2013-05-10 03:29:00,
2013-05-09 20:34:00,64.6,39.9,30.17,NNE,22,0.0,0.0,40,0.00,,,0.00,WUHU21623XXSP,2013-05-10 03:34:00,
2013-05-09 20:39:00,64.6,40.3,30.17,NNE,22,0.0,0.0,41,0.00,,,0.00,WUHU21623XXSP,2013-05-10 03:39:00,
2013-05-09 20:44:00,64.2,40.5,30.17,NNE,22,0.0,0.0,42,0.00,,,0.00,WUHU21623XXSP,2013-05-10 03:44:00,
2013-05-09 20:49:00,64.0,41.0,30.17,NNW,337,5.4,5.4,44,0.00,,,0.00,WUHU21623XXSP,2013-05-10 03:49:00,
2013-05-09 20:54:00,63.5,41.1,30.17,NNW,337,0.0,5.4,44,0.00,,,0.00,WUHU21623XXSP,2013-05-10 03:54:00,
2013-05-09 20:59:00,63.3,40.9,30.17,WNW,292,1.1,5.4,44,0.00,,,0.00,WUHU21623XXSP,2013-05-10 03:59:00,
2013-05-09 21:01:00,63.3,40.9,30.17,WNW,292,1.1,1.1,44,0.00,,,0.00,WUHU21623XXSP,2013-05-10 04:01:00,
2013-05-09 21:06:00,63.1,40.7,30.17,NNW,337,0.0,1.1,44,0.00,,,0.00,WUHU21623XXSP,2013-05-10 04:06:00,
2013-05-09 21:13:00,62.8,39.8,30.18,North,0,0.0,0.0,43,0.00,,,0.00,WUHU21623XXSP,2013-05-10 04:13:00,
2013-05-09 21:18:00,62.6,39.7,30.18,NNE,22,0.0,0.0,43,0.00,,,0.00,WUHU21623XXSP,2013-05-10 04:18:00,
2013-05-09 21:23:00,62.4,39.5,30.18,WNW,292,0.0,0.0,43,0.00,,,0.00,WUHU21623XXSP,2013-05-10 04:23:00,
2013-05-09 21:30:00,61.7,38.9,30.18,SSW,202,0.0,0.0,43,0.00,,,0.00,WUHU21623XXSP,2013-05-10 04:30:00,
2013-05-09 21:35:00,61.5,38.7,30.19,NNE,22,0.0,0.0,43,0.00,,,0.00,WUHU21623XXSP,2013-05-10 04:35:00,
2013-05-09 21:41:00,60.8,38.0,30.19,ENE,67,0.0,0.0,43,0.00,,,0.00,WUHU21623XXSP,2013-05-10 04:41:00,
2013-05-09 21:47:00,60.4,37.7,30.19,ESE,112,0.0,0.0,43,0.00,,,0.00,WUHU21623XXSP,2013-05-10 04:47:00,
2013-05-09 21:52:00,60.1,37.4,30.19,ESE,112,0.0,0.0,43,0.00,,,0.00,WUHU21623XXSP,2013-05-10 04:52:00,
2013-05-09 21:57:00,59.7,37.7,30.19,SSW,202,0.0,0.0,44,0.00,,,0.00,WUHU21623XXSP,2013-05-10 04:57:00,
2013-05-09 22:02:00,59.5,37.5,30.20,ESE,112,0.0,0.0,44,0.00,,,0.00,WUHU21623XXSP,2013-05-10 05:02:00,
2013-05-09 22:13:00,58.8,36.8,30.20,ESE,112,0.0,0.0,44,0.00,,,0.00,WUHU21623XXSP,2013-05-10 05:13:00,
2013-05-09 22:18:00,58.8,36.8,30.21,ESE,112,0.0,0.0,44,0.00,,,0.00,WUHU21623XXSP,2013-05-10 05:18:00,
2013-05-09 22:23:00,58.6,36.7,30.21,North,0,0.0,0.0,45,0.00,,,0.00,WUHU21623XXSP,2013-05-10 05:23:00,
2013-05-09 22:28:00,58.6,37.3,30.21,NNW,337,0.0,0.0,45,0.00,,,0.00,WUHU21623XXSP,2013-05-10 05:28:00,
2013-05-09 22:33:00,58.3,36.9,30.21,NNW,337,0.0,0.0,45,0.00,,,0.00,WUHU21623XXSP,2013-05-10 05:33:00,
2013-05-09 22:38:00,58.3,36.9,30.22,SE,135,0.0,0.0,45,0.00,,,0.00,WUHU21623XXSP,2013-05-10 05:38:00,
2013-05-09 22:47:00,57.9,37.2,30.23,ESE,112,0.0,0.0,46,0.00,,,0.00,WUHU21623XXSP,2013-05-10 05:47:00,
2013-05-09 22:52:00,57.9,37.2,30.23,NNE,22,0.0,0.0,46,0.00,,,0.00,WUHU21623XXSP,2013-05-10 05:52:00,
2013-05-09 22:57:00,57.7,37.0,30.23,WSW,247,0.0,0.0,46,0.00,,,0.00,WUHU21623XXSP,2013-05-10 05:57:00,
2013-05-09 23:02:00,57.7,37.6,30.23,NNE,22,0.0,0.0,47,0.00,,,0.00,WUHU21623XXSP,2013-05-10 06:02:00,
2013-05-09 23:07:00,57.7,37.6,30.23,SSE,157,0.0,0.0,47,0.00,,,0.00,WUHU21623XXSP,2013-05-10 06:07:00,
2013-05-09 23:13:00,57.7,38.2,30.24,NNE,22,2.9,2.9,48,0.00,,,0.00,WUHU21623XXSP,2013-05-10 06:13:00,
2013-05-09 23:19:00,58.1,38.5,30.24,NNW,337,3.8,3.8,48,0.00,,,0.00,WUHU21623XXSP,2013-05-10 06:19:00,
2013-05-09 23:28:00,58.6,39.0,30.24,SSW,202,1.3,3.8,48,0.00,,,0.00,WUHU21623XXSP,2013-05-10 06:28:00,
2013-05-09 23:33:00,58.8,39.0,30.24,SSW,202,2.7,2.7,48,0.00,,,0.00,WUHU21623XXSP,2013-05-10 06:33:00,
2013-05-09 23:38:00,58.8,39.1,30.23,West,270,0.0,2.7,48,0.00,,,0.00,WUHU21623XXSP,2013-05-10 06:38:00,
2013-05-09 23:45:00,58.8,39.1,30.24,SSW,202,2.0,2.0,48,0.00,,,0.00,WUHU21623XXSP,2013-05-10 06:45:00,
2013-05-09 23:51:00,58.8,39.1,30.24,South,180,3.6,3.6,48,0.00,,,0.00,WUHU21623XXSP,2013-05-10 06:51:00,
2013-05-09 23:56:00,58.8,39.1,30.24,SSW,202,1.6,3.6,48,0.00,,,0.00,WUHU21623XXSP,2013-05-10 06:56:00,